Location: Plainartige
(45.6866°N, 1.7993°E)
Time: 21:53:10
(UTC+00:00)

DIWATA 2B (PO-101) - Pass Details

Date: 10 July 2022
Orbit: 583 x 599 km, 98.0° (Epoch: 07 August)

Event Time Altitude Azimuth Distance (km) Brightness Sun altitude
Exits shadow 01:18:51 22° 136° (SE) 1,305 ? -19.6°
Maximum altitude 01:21:14 48° 72° (ENE) 785 ? -19.5°
Drops below altitude 10° 01:25:18 10° 358° (N) 1,947 ? -19.2°
Sets 01:27:32 0° 352° (N) 2,852 ? -19.1°
